Погода в Аллаге

Россия / Республика Саха (Якутия)     62°13′39″N   117°03′06″E
темп.,
°C
ветер,
м/с
пор.,
м/с
влажн.,
%
обл.,
%
осадки,
мм/ч
давл.,
гПа
погр.,
м
1 марта, пн
пн100:00−32зюз23950 0.0 103226
03:00−34зюз23960 0.0 103254
06:00−35зюз23970 0.0 103225
09:00−35зюз23970 0.0 103268
12:00−28зюз24940 0.0 1031320
15:00−25зюз248842 0.0 1029717
18:00−28юз2292100 0.0 102819
21:00−32зюз129484 0.0 102819
2 марта, вт
вт200:00−34з11960 0.0 102819
03:00−36з00980 0.0 102719
06:00−37всв0110023 0.0 102719
09:00−37всв119912 0.0 102619
12:00−30всв229227 0.0 1025286
15:00−27св239263 0.0 1023458
18:00−29ссв2497100 0.0 102491
21:00−33ссв339980 0.0 102564
3 марта, ср
ср300:00−35ссв239985 0.0 102461
03:00−36ссв359989 0.0 102589
06:00−38ссв239975 0.0 102557
09:00−38с239870 0.0 102665
12:00−32с249570 0.0 1026288
15:00−29с239080 0.0 1025435
18:00−30ссз2295100 0.0 102625
21:00−35сз229670 0.0 102919
4 марта, чт
чт400:00−37зсз23978 0.0 103024
03:00−38зсз349614 0.0 103176
06:00−39з379339 0.0 1032158
09:00−36з499067 0.0 1032308
12:00−32з4990100 0.0 1032379
15:00−29з51089100 0.0 1032515
18:00−28з5118583 0.0 1033582
21:00−30зсз5138747 0.0 1035468
5 марта, пт
пт500:00−32з412890 0.0 1036366
03:00−33з412900 0.0 1037333
06:00−34з410920 0.0 1038286
09:00−34з410910 0.0 1038290
12:00−28зюз36910 0.0 1037394
15:00−24зюз358911 0.0 1035501
18:00−24юз229239 0.0 103343
21:00−29ююз229321 0.0 103319